Weather History for KI39 - December, 2012

Change the Weather History Date:

Sunday, December 30, 2012

  Actual Average (KLOZ) Record (KLOZ)
Temperature  
Mean Temperature 28 °F 36 °F  
Max Temperature 33 °F 45 °F 70 °F (1990)
Min Temperature 23 °F 27 °F -1 °F (1983)
Degree Days  
Heating Degree Days 37 29  
Month to date heating degree days 793  
Since 1 July heating degree days 1623  
Cooling Degree Days 0 0  
Month to date cooling degree days 0  
Moisture  
Dew Point 20 °F    
Average Humidity 72    
Maximum Humidity 80    
Minimum Humidity 56    
Precipitation  
Precipitation 0.00 in 0.12 in 1.96 in (1969)
Month to date precipitation 4.12  
Sea Level Pressure  
Sea Level Pressure 30.39 in    
Wind  
Wind Speed 9 mph (WSW)    
Max Wind Speed 18 mph    
Max Gust Speed 26 mph    
Visibility 10 miles    
Events      
T = Trace of Precipitation, MM = Missing Value Source: NWS Daily Summary

Daily Weather History Graph

Daily Weather History Graph

Search for Another Location

Airport or City:

Trip Planner

Search our weather history database for the weather conditions in past years. The results will help you decide how hot, cold, wet, or windy it might be!

Date:

Astronomy

Dec. 30, 2012 Rise Set
Actual Time 7:52 AM EST 5:28 PM EST
Civil Twilight 7:22 AM EST 5:57 PM EST
Nautical Twilight 6:50 AM EST 6:30 PM EST
Astronomical Twilight 6:18 AM EST 7:02 PM EST
Moon 7:55 PM EST 9:03 AM EST
Length of Visible Light 10h 34m
Length of Day
9h 36m
Waning Gibbous, 95% of the Moon is Illuminated
Dec 30
Waning Gibbous
Jan 4
Last Quarter
Jan 11
New
Jan 18
First Quarter
Jan 26
Full

Hourly Weather History & Observations

Time (EST) Temp. Windchill Dew Point Humidity Pressure Visibility Wind Dir Wind Speed Gust Speed Precip Events Conditions
12:15 AM 24.8 °F 11.9 °F 19.4 °F 80% 30.26 in 10.0 mi WNW 16.1 mph 24.2 mph N/A   Overcast
12:35 AM 24.8 °F 13.4 °F 19.4 °F 80% 30.26 in 10.0 mi WNW 12.7 mph 19.6 mph N/A   Overcast
12:55 AM 24.8 °F 14.0 °F 19.4 °F 80% 30.26 in 10.0 mi WNW 11.5 mph - N/A   Overcast
1:15 AM 24.8 °F 13.4 °F 19.4 °F 80% 30.27 in 10.0 mi West 12.7 mph 18.4 mph N/A   Overcast
1:35 AM 24.8 °F 11.1 °F 19.4 °F 80% 30.27 in 10.0 mi West 18.4 mph 26.5 mph N/A   Overcast
1:55 AM 24.8 °F 14.0 °F 19.4 °F 80% 30.29 in 10.0 mi West 11.5 mph 20.7 mph N/A   Overcast
2:15 AM 24.8 °F 12.9 °F 19.4 °F 80% 30.30 in 10.0 mi West 13.8 mph - N/A   Overcast
2:35 AM 24.8 °F 12.4 °F 19.4 °F 80% 30.30 in 10.0 mi WNW 15.0 mph 21.9 mph N/A   Overcast
2:55 AM 24.8 °F 14.6 °F 19.4 °F 80% 30.31 in 10.0 mi WNW 10.4 mph - N/A   Overcast
3:15 AM 24.8 °F 15.3 °F 19.4 °F 80% 30.32 in 10.0 mi WNW 9.2 mph - N/A   Overcast
3:35 AM 24.8 °F 14.6 °F 19.4 °F 80% 30.32 in 10.0 mi WNW 10.4 mph - N/A   Overcast
3:55 AM 24.8 °F 14.6 °F 19.4 °F 80% 30.33 in 10.0 mi WNW 10.4 mph - N/A   Overcast
4:15 AM 24.8 °F 16.1 °F 19.4 °F 80% 30.35 in 10.0 mi West 8.1 mph - N/A   Overcast
4:35 AM 24.8 °F 12.4 °F 19.4 °F 80% 30.35 in 10.0 mi West 15.0 mph 18.4 mph N/A   Overcast
4:55 AM 24.8 °F 15.3 °F 19.4 °F 80% 30.35 in 10.0 mi WNW 9.2 mph - N/A   Overcast
5:15 AM 24.8 °F 14.6 °F 19.4 °F 80% 30.36 in 10.0 mi WNW 10.4 mph - N/A   Overcast
5:35 AM 24.8 °F 15.3 °F 19.4 °F 80% 30.36 in 10.0 mi WNW 9.2 mph - N/A   Overcast
5:55 AM 24.8 °F 17.9 °F 19.4 °F 80% 30.36 in 10.0 mi West 5.8 mph - N/A   Overcast
6:15 AM 24.8 °F 16.1 °F 19.4 °F 80% 30.37 in 10.0 mi West 8.1 mph - N/A   Overcast
6:35 AM 24.8 °F 16.9 °F 19.4 °F 80% 30.40 in 10.0 mi West 6.9 mph - N/A   Overcast
6:55 AM 24.8 °F 16.9 °F 19.4 °F 80% 30.40 in 10.0 mi West 6.9 mph - N/A   Overcast
7:15 AM 24.8 °F 13.4 °F 19.4 °F 80% 30.41 in 10.0 mi West 12.7 mph - N/A   Overcast
7:35 AM 24.8 °F 16.1 °F 19.4 °F 80% 30.41 in 10.0 mi West 8.1 mph - N/A   Overcast
8:15 AM 24.8 °F 14.6 °F 19.4 °F 80% 30.43 in 10.0 mi West 10.4 mph - N/A   Overcast
8:35 AM 23.0 °F 13.9 °F 17.6 °F 80% 30.44 in 10.0 mi West 8.1 mph - N/A   Mostly Cloudy
8:55 AM 23.0 °F 15.8 °F 17.6 °F 80% 30.44 in 10.0 mi West 5.8 mph - N/A   Scattered Clouds
9:15 AM 24.8 °F 16.9 °F 17.6 °F 74% 30.45 in 10.0 mi West 6.9 mph - N/A   Scattered Clouds
9:35 AM 24.8 °F 16.9 °F 19.4 °F 80% 30.45 in 10.0 mi WSW 6.9 mph - N/A   Scattered Clouds
9:55 AM 24.8 °F 15.3 °F 19.4 °F 80% 30.45 in 10.0 mi SW 9.2 mph - N/A   Scattered Clouds
10:15 AM 26.6 °F 16.8 °F 19.4 °F 74% 30.46 in 10.0 mi WSW 10.4 mph - N/A   Mostly Cloudy
10:35 AM 24.8 °F 16.9 °F 19.4 °F 80% 30.46 in 10.0 mi West 6.9 mph - N/A   Mostly Cloudy
10:55 AM 26.6 °F 17.5 °F 19.4 °F 74% 30.47 in 10.0 mi West 9.2 mph - N/A   Scattered Clouds
11:15 AM 28.4 °F 20.4 °F 19.4 °F 69% 30.47 in 10.0 mi WSW 8.1 mph - N/A   Scattered Clouds
11:35 AM 28.4 °F 21.2 °F 19.4 °F 69% 30.47 in 10.0 mi WSW 6.9 mph - N/A   Scattered Clouds
11:55 AM 28.4 °F 20.4 °F 21.2 °F 74% 30.47 in 10.0 mi WSW 8.1 mph - N/A   Scattered Clouds
12:15 PM 30.2 °F 22.6 °F 21.2 °F 69% 30.47 in 10.0 mi West 8.1 mph - N/A   Clear
12:35 PM 30.2 °F 21.3 °F 21.2 °F 69% 30.46 in 10.0 mi WSW 10.4 mph - N/A   Clear
12:55 PM 32.0 °F 24.2 °F 21.2 °F 64% 30.46 in 10.0 mi WSW 9.2 mph - N/A   Clear
1:15 PM 32.0 °F 24.8 °F 21.2 °F 64% 30.44 in 10.0 mi SW 8.1 mph - N/A   Clear
1:35 PM 32.0 °F 25.6 °F 19.4 °F 60% 30.43 in 10.0 mi West 6.9 mph - N/A   Clear
1:55 PM 32.0 °F 24.8 °F 19.4 °F 60% 30.43 in 10.0 mi West 8.1 mph - N/A   Clear
2:15 PM 33.8 °F 27.0 °F 19.4 °F 56% 30.42 in 10.0 mi West 8.1 mph - N/A   Clear
2:35 PM 33.8 °F 27.7 °F 21.2 °F 60% 30.40 in 10.0 mi WSW 6.9 mph - N/A   Clear
2:55 PM 33.8 °F - 19.4 °F 56% 30.38 in 10.0 mi Calm Calm - N/A   Clear
3:15 PM 33.8 °F - 19.4 °F 56% 30.38 in 10.0 mi Calm Calm - N/A   Clear
3:35 PM 33.8 °F 30.8 °F 19.4 °F 56% 30.39 in 10.0 mi West 3.5 mph - N/A   Clear
3:55 PM 33.8 °F 30.8 °F 19.4 °F 56% 30.40 in 10.0 mi WNW 3.5 mph - N/A   Clear
4:15 PM 33.8 °F 28.6 °F 21.2 °F 60% 30.41 in 10.0 mi WSW 5.8 mph - N/A   Clear
4:35 PM 33.8 °F 28.6 °F 21.2 °F 60% 30.42 in 10.0 mi West 5.8 mph - N/A   Clear
4:55 PM 32.0 °F 28.7 °F 21.2 °F 64% 30.43 in 10.0 mi WSW 3.5 mph - N/A   Clear
5:15 PM 32.0 °F - 21.2 °F 64% 30.42 in 10.0 mi Calm Calm - N/A   Clear
5:35 PM 32.0 °F - 21.2 °F 64% 30.41 in 10.0 mi Calm Calm - N/A   Clear
5:55 PM 32.0 °F 28.7 °F 21.2 °F 64% 30.40 in 10.0 mi South 3.5 mph - N/A   Clear
6:15 PM 32.0 °F 28.7 °F 21.2 °F 64% 30.40 in 10.0 mi South 3.5 mph - N/A   Clear
6:35 PM 32.0 °F 27.5 °F 21.2 °F 64% 30.41 in 10.0 mi South 4.6 mph - N/A   Clear
6:55 PM 30.2 °F - 21.2 °F 69% 30.40 in 10.0 mi Calm Calm - N/A   Clear
7:15 PM 30.2 °F 25.4 °F 21.2 °F 69% 30.40 in 10.0 mi South 4.6 mph - N/A   Clear
7:35 PM 30.2 °F 25.4 °F 21.2 °F 69% 30.40 in 10.0 mi SSW 4.6 mph - N/A   Clear
7:55 PM 30.2 °F 25.4 °F 21.2 °F 69% 30.40 in 10.0 mi SSW 4.6 mph - N/A   Clear
8:15 PM 30.2 °F 26.7 °F 21.2 °F 69% 30.40 in 10.0 mi SSW 3.5 mph - N/A   Clear
8:35 PM 30.2 °F 26.7 °F 21.2 °F 69% 30.40 in 10.0 mi SSW 3.5 mph - N/A   Clear
8:55 PM 30.2 °F 26.7 °F 21.2 °F 69% 30.39 in 10.0 mi South 3.5 mph - N/A   Clear
9:15 PM 30.2 °F 26.7 °F 21.2 °F 69% 30.38 in 10.0 mi South 3.5 mph - N/A   Clear
9:35 PM 28.4 °F 24.6 °F 21.2 °F 74% 30.37 in 10.0 mi SSE 3.5 mph - N/A   Clear
9:55 PM 28.4 °F 24.6 °F 21.2 °F 74% 30.37 in 10.0 mi SE 3.5 mph - N/A   Clear
10:15 PM 30.2 °F 26.7 °F 21.2 °F 69% 30.37 in 10.0 mi South 3.5 mph - N/A   Clear
10:35 PM 28.4 °F 23.3 °F 21.2 °F 74% 30.38 in 10.0 mi South 4.6 mph - N/A   Clear
10:55 PM 28.4 °F 22.2 °F 21.2 °F 74% 30.37 in 10.0 mi SSW 5.8 mph - N/A   Clear
11:15 PM 28.4 °F 22.2 °F 21.2 °F 74% 30.37 in 10.0 mi South 5.8 mph - N/A   Clear
11:35 PM 28.4 °F 23.3 °F 21.2 °F 74% 30.38 in 10.0 mi SSW 4.6 mph - N/A   Clear
11:55 PM 28.4 °F 23.3 °F 21.2 °F 74% 30.36 in 10.0 mi South 4.6 mph - N/A   Clear